New Roads False River Regiona, LA

8:58 AM CDT on August 23, 2019 (GMT -0500)
False River

Weather History for KHZR - June, 2019

Change the Weather History Date:

Friday, June 7, 2019

  Actual Average (WUND) Record (WUND)
Temperature  
Mean Temperature - -  
Max Temperature - - - (-1)
Min Temperature - - - (-1)
Moisture  
Dew Point -    
Average Humidity    
Maximum Humidity    
Minimum Humidity    
Precipitation  
Precipitation 0.18 in - - ()
Sea Level Pressure  
Sea Level Pressure 29.73 in    
Wind  
Wind Speed 4 mph ()    
Max Wind Speed 22 mph    
Max Gust Speed 33 mph    
Visibility 8.6 miles    
Events Rain , Thunderstorm    
Averages and records for this station are not official NWS values.
T = Trace of Precipitation, MM = Missing Value Source: Averaged Metar Reports

Daily Weather History Graph

Daily Weather History Graph

Search for Another Location

Airport or City:

Astronomy

Jun. 07, 2019 Rise Set
Actual Time 6:02 AM CDT 8:07 PM CDT
Civil Twilight 5:35 AM CDT 8:34 PM CDT
Nautical Twilight 5:01 AM CDT 9:08 PM CDT
Astronomical Twilight 4:25 AM CDT 9:43 PM CDT
Moon 10:15 AM CDT (6/7) No Moon Set
Length of Visible Light 14h 59m
Length of Day
14h 04m
Waxing Crescent, 22% of the Moon is Illuminated
Jun 7
Waxing Crescent
Jun 10
First Quarter
Jun 17
Full
Jun 25
Last Quarter
Jul 2
New

Hourly Weather History & Observations

Time (CDT) Temp. Dew Point Humidity Pressure Visibility Wind Dir Wind Speed Gust Speed Precip Events Conditions
12:16 AM - - N/A% 29.75 in 10.0 mi Calm Calm - 0.01 in   Scattered Clouds
12:34 AM - - N/A% 29.74 in 10.0 mi Calm Calm - 0.01 in   Clear
12:55 AM - - N/A% 29.74 in 10.0 mi Calm Calm - 0.02 in   Clear
1:16 AM - - N/A% 29.74 in 10.0 mi Calm Calm - N/A   Mostly Cloudy
1:35 AM - - N/A% 29.75 in 10.0 mi Calm Calm - 0.01 in   Scattered Clouds
1:54 AM - - N/A% 29.75 in 10.0 mi Calm Calm - 0.01 in   Mostly Cloudy
2:16 AM - - N/A% 29.74 in 7.0 mi Calm Calm - 0.01 in   Mostly Cloudy
2:36 AM - - N/A% 29.73 in 7.0 mi South 3.5 mph - 0.01 in   Scattered Clouds
2:54 AM - - N/A% 29.72 in 5.0 mi SSE 3.5 mph - 0.02 in   Haze
3:14 AM - - N/A% 29.72 in 5.0 mi SSE 3.5 mph - N/A   Haze
3:35 AM - - N/A% 29.72 in 5.0 mi SSE 4.6 mph - N/A   Haze
3:56 AM - - N/A% 29.71 in 5.0 mi South 3.5 mph - 0.01 in   Haze
4:16 AM - - N/A% 29.71 in 4.0 mi SSE 3.5 mph - N/A   Haze
4:55 AM - - N/A% 29.71 in 5.0 mi South 5.8 mph - 0.01 in   Haze
5:36 AM - - N/A% 29.72 in 4.0 mi SSW 4.6 mph - N/A   Haze
6:55 AM - - N/A% 29.74 in 4.0 mi SSW 8.1 mph - 0.01 in   Haze
7:15 AM - - N/A% 29.75 in 7.0 mi SW 8.1 mph - N/A   Clear
7:35 AM - - N/A% 29.75 in 10.0 mi SSW 6.9 mph - N/A   Clear
7:55 AM - - N/A% 29.76 in 10.0 mi SSW 9.2 mph - N/A   Clear
8:14 AM - - N/A% 29.76 in 10.0 mi WSW 9.2 mph - 0.01 in   Clear
8:35 AM - - N/A% 29.77 in 10.0 mi WSW 11.5 mph - 0.01 in   Clear
8:56 AM - - N/A% 29.77 in 10.0 mi West 11.5 mph - 0.01 in   Clear
9:36 AM - - N/A% 29.77 in 10.0 mi WSW 8.1 mph - 0.01 in   Clear
9:54 AM - - N/A% 29.76 in 10.0 mi West 4.6 mph - 0.01 in   Clear
10:36 AM - - N/A% 29.76 in 10.0 mi WSW 4.6 mph - 0.01 in   Scattered Clouds
10:56 AM - - N/A% 29.76 in 10.0 mi West 9.2 mph - 0.01 in   Mostly Cloudy
12:14 PM - - N/A% 29.76 in 10.0 mi West 5.8 mph 16.1 mph 0.01 in Rain , Thunderstorm Light Thunderstorms and Rain
12:36 PM - - N/A% 29.75 in 10.0 mi West 8.1 mph - 0.01 in   Mostly Cloudy
1:35 PM - - N/A% 29.73 in 10.0 mi WSW 6.9 mph - 0.01 in   Scattered Clouds
2:34 PM - - N/A% 29.71 in 10.0 mi SW 6.9 mph - 0.01 in   Scattered Clouds
2:56 PM - - N/A% 29.70 in 10.0 mi SSW 3.5 mph - 0.01 in   Scattered Clouds
3:14 PM - - N/A% 29.70 in 10.0 mi SW 6.9 mph - N/A   Scattered Clouds
3:34 PM - - N/A% 29.69 in 10.0 mi SW 5.8 mph - 0.01 in   Scattered Clouds
3:55 PM - - N/A% 29.68 in 10.0 mi SW 9.2 mph - 0.01 in   Scattered Clouds
4:36 PM - - N/A% 29.66 in 10.0 mi SSW 9.2 mph - N/A   Scattered Clouds
4:54 PM - - N/A% 29.66 in 10.0 mi SSW 5.8 mph - 0.01 in   Scattered Clouds
6:36 PM - - N/A% 29.70 in 1.5 mi SSW 21.9 mph 33.4 mph 0.01 in Rain , Thunderstorm Heavy Thunderstorms and Rain
8:15 PM - - N/A% 29.70 in 10.0 mi Calm Calm - 0.01 in   Scattered Clouds
8:55 PM - - N/A% 29.70 in 10.0 mi Calm Calm - 0.01 in   Mostly Cloudy
9:35 PM - - N/A% 29.71 in 10.0 mi South 3.5 mph - N/A   Scattered Clouds
10:14 PM - - N/A% 29.72 in 10.0 mi Calm Calm - N/A   Mostly Cloudy
10:34 PM - - N/A% 29.73 in 10.0 mi Calm Calm - N/A   Scattered Clouds
11:54 PM - - N/A% 29.73 in 10.0 mi Calm Calm - N/A   Clear